This demonstration page uses our WeatherBlox Daily Observations layout. Learn more.

Left ArrowRight Arrow

Hourly Observations for March 29, 2021

Temp ( °F °C ) Dew Point ( °F °C ) Humidity (%) Winds ( mph kmh ) Pressure ( in mb ) Visibility ( mi km ) Precip ( " mm )
12:53 am 00:53 Clear 52 11.1 28 -2.2 40 40 NNW 15 24 30.15 1021 10 16 0.00 0.00
1:53 am 01:53 Clear 51 10.6 28 -2.2 41 41 N 12 19 30.14 1021 10 16 0.00 0.00
2:53 am 02:53 Clear 49 9.4 27 -2.8 43 43 NNW 8 13 30.16 1021 10 16 0.00 0.00
3:53 am 03:53 Clear 47 8.3 27 -2.8 46 46 N 3 6 30.16 1021 10 16 0.00 0.00
4:53 am 04:53 Clear 45 7.2 25 -3.9 46 46 N 5 7 30.16 1021 10 16 0.00 0.00
5:53 am 05:53 Clear 44 6.7 25 -3.9 47 47 Calm 30.17 1022 10 16 0.00 0.00
6:53 am 06:53 Clear 43 6.1 26 -3.3 51 51 Calm 30.19 1022 10 16 0.00 0.00
7:53 am 07:53 Sunny 41 5 29 -1.7 62 62 Calm 30.21 1023 10 16 0.00 0.00
8:53 am 08:53 Sunny 45 7.2 29 -1.7 54 54 Calm 30.23 1024 10 16 0.00 0.00
9:53 am 09:53 Sunny 50 10 29 -1.7 44 44 VRB 5 7 30.25 1024 10 16 0.00 0.00
10:53 am 10:53 Sunny 54 12.2 27 -2.8 35 35 ENE 5 7 30.25 1025 10 16 0.00 0.00
11:53 am 11:53 Sunny 57 13.9 26 -3.3 30 30 ENE 5 7 30.25 1025 10 16 0.00 0.00
12:53 pm 12:53 Sunny 60 15.6 27 -2.8 28 28 ENE 3 6 30.24 1024 10 16 0.00 0.00
1:53 pm 13:53 Sunny 62 16.7 28 -2.2 28 28 VRB 3 6 30.22 1023 10 16 0.00 0.00
2:53 pm 14:53 Sunny 65 18.3 30 -1.1 27 27 WSW 7 11 30.19 1022 10 16 0.00 0.00
3:53 pm 15:53 Sunny 68 20 27 -2.8 21 21 VRB 3 6 30.16 1022 10 16 0.00 0.00
4:53 pm 16:53 Sunny 68 20 27 -2.8 21 21 Calm 30.15 1021 10 16 0.00 0.00
5:53 pm 17:53 Sunny 69 20.6 27 -2.8 21 21 E 3 6 30.14 1021 10 16 0.00 0.00
6:53 pm 18:53 Sunny 69 20.6 26 -3.3 20 20 SE 7 11 30.14 1021 10 16 0.00 0.00
7:53 pm 19:53 Sunny 67 19.4 29 -1.7 24 24 ESE 3 6 30.14 1021 10 16 0.00 0.00
8:53 pm 20:53 Clear 64 17.8 32 0 30 30 SE 5 7 30.16 1021 10 16 0.00 0.00
9:53 pm 21:53 Clear 62 16.7 32 0 32 32 ESE 5 7 30.17 1022 10 16 0.00 0.00
10:53 pm 22:53 Clear 60 15.6 34 1.1 38 38 ESE 3 6 30.19 1023 10 16 0.00 0.00
11:53 pm 23:53 Clear 50 10 41 5 71 71 Calm 30.20 1023 10 16 0.00 0.00

Powered by AerisWeather